Radiation Dose at Monitoring Post of Fukushima Daini Nuclear Power Station
Date,Time,MP-1(microSv/h),MP-2(microSv/h),MP-3(microSv/h),MP-4(microSv/h),MP-5(microSv/h),MP-6(microSv/h),MP-7(microSv/h),Wind Direction,Wind Velocity(m/s),Rain
2018/02/02,00:00,0.331,0.200,0.330,0.316,0.297,0.166,0.101,north,7.4,No
2018/02/02,00:10,0.329,0.199,0.329,0.316,0.297,0.167,0.100,north,6.7,No
2018/02/02,00:20,0.331,0.200,0.331,0.316,0.297,0.167,0.100,north,6.5,No
2018/02/02,00:30,0.329,0.201,0.331,0.314,0.296,0.167,0.100,north,6.7,No
2018/02/02,00:40,0.330,0.199,0.330,0.316,0.296,0.166,0.101,north,7.3,No
2018/02/02,00:50,0.330,0.200,0.330,0.315,0.297,0.167,0.100,north,5.2,No
2018/02/02,01:00,0.330,0.199,0.330,0.315,0.297,0.167,0.100,north,7.0,No
2018/02/02,01:10,0.330,0.201,0.330,0.315,0.296,0.167,0.100,north,7.3,No
2018/02/02,01:20,0.331,0.201,0.328,0.315,0.296,0.167,0.101,north,5.6,No
2018/02/02,01:30,0.331,0.201,0.329,0.314,0.298,0.166,0.100,north,6.7,No
2018/02/02,01:40,0.330,0.200,0.331,0.317,0.297,0.166,0.100,north,7.1,No
2018/02/02,01:50,0.331,0.201,0.330,0.316,0.297,0.166,0.100,north,7.5,No
2018/02/02,02:00,0.329,0.201,0.330,0.316,0.296,0.167,0.100,north,8.2,No
2018/02/02,02:10,0.330,0.201,0.330,0.314,0.297,0.167,0.101,north,7.7,No
2018/02/02,02:20,0.331,0.200,0.329,0.316,0.297,0.166,0.100,north,6.6,No
2018/02/02,02:30,0.330,0.202,0.331,0.316,0.298,0.166,0.101,north,7.3,No
2018/02/02,02:40,0.333,0.202,0.331,0.315,0.297,0.166,0.100,north,8.4,No
2018/02/02,02:50,0.330,0.201,0.331,0.315,0.296,0.167,0.100,north,7.9,No
2018/02/02,03:00,0.331,0.201,0.331,0.316,0.298,0.167,0.100,north,8.1,No
2018/02/02,03:10,0.331,0.200,0.330,0.315,0.297,0.167,0.100,north,8.5,No
2018/02/02,03:20,0.331,0.199,0.330,0.315,0.296,0.166,0.100,north-northwest,7.7,No
2018/02/02,03:30,0.331,0.201,0.331,0.317,0.297,0.167,0.101,north,7.8,No
2018/02/02,03:40,0.332,0.201,0.332,0.315,0.298,0.167,0.101,north,7.8,No
2018/02/02,03:50,0.330,0.200,0.332,0.315,0.297,0.166,0.100,north,7.4,No
2018/02/02,04:00,0.331,0.201,0.331,0.316,0.297,0.167,0.100,north-northwest,7.3,Yes
2018/02/02,04:10,0.331,0.201,0.331,0.317,0.298,0.167,0.102,north-northwest,7.4,Yes
2018/02/02,04:20,0.334,0.202,0.332,0.318,0.300,0.168,0.103,north-northwest,6.5,Yes
2018/02/02,04:30,0.333,0.202,0.332,0.316,0.298,0.169,0.103,north-northwest,7.3,Yes
2018/02/02,04:40,0.334,0.203,0.332,0.317,0.298,0.170,0.103,north-northwest,7.3,Yes
2018/02/02,04:50,0.333,0.203,0.331,0.317,0.298,0.169,0.102,north-northwest,7.4,Yes
2018/02/02,05:00,0.334,0.203,0.332,0.318,0.300,0.168,0.103,north-northwest,7.6,Yes
2018/02/02,05:10,0.334,0.204,0.333,0.318,0.300,0.171,0.104,north-northwest,7.0,Yes
2018/02/02,05:20,0.334,0.204,0.333,0.319,0.299,0.170,0.104,north-northwest,7.0,Yes
2018/02/02,05:30,0.334,0.204,0.333,0.319,0.300,0.171,0.104,north-northwest,7.5,Yes
2018/02/02,05:40,0.335,0.203,0.334,0.316,0.300,0.170,0.104,north-northwest,7.3,Yes
2018/02/02,05:50,0.334,0.204,0.333,0.317,0.299,0.169,0.104,north-northwest,7.3,Yes
2018/02/02,06:00,0.333,0.205,0.332,0.317,0.299,0.171,0.105,north-northwest,6.3,Yes
2018/02/02,06:10,0.332,0.203,0.332,0.317,0.297,0.169,0.103,north,6.1,Yes
2018/02/02,06:20,0.332,0.203,0.331,0.316,0.298,0.169,0.103,north-northwest,5.0,Yes
2018/02/02,06:30,0.333,0.204,0.333,0.317,0.299,0.171,0.103,north-northwest,5.2,Yes
2018/02/02,06:40,0.333,0.203,0.333,0.317,0.298,0.170,0.104,north,6.6,Yes
2018/02/02,06:50,0.332,0.202,0.332,0.315,0.298,0.169,0.103,north,7.3,Yes
2018/02/02,07:00,0.333,0.203,0.332,0.316,0.297,0.170,0.103,north-northwest,6.7,Yes
2018/02/02,07:10,0.333,0.203,0.331,0.314,0.298,0.170,0.103,north-northwest,7.3,Yes
2018/02/02,07:20,0.334,0.203,0.331,0.317,0.297,0.169,0.103,north-northwest,7.4,Yes
2018/02/02,07:30,0.331,0.204,0.330,0.317,0.298,0.169,0.104,north-northwest,7.5,Yes
2018/02/02,07:40,0.334,0.205,0.332,0.317,0.299,0.170,0.104,north,7.3,Yes
2018/02/02,07:50,0.333,0.205,0.332,0.317,0.299,0.171,0.106,north,6.7,Yes
2018/02/02,08:00,0.333,0.205,0.332,0.316,0.298,0.171,0.106,north,5.8,Yes
2018/02/02,08:10,0.333,0.204,0.331,0.317,0.297,0.171,0.105,north,6.1,Yes
2018/02/02,08:20,0.332,0.203,0.331,0.315,0.298,0.171,0.106,north,6.7,Yes
2018/02/02,08:30,0.331,0.203,0.330,0.315,0.297,0.170,0.105,north,8.1,No
2018/02/02,08:40,0.330,0.202,0.331,0.315,0.297,0.169,0.104,north-northwest,6.8,No
2018/02/02,08:50,0.330,0.202,0.331,0.313,0.294,0.168,0.103,north-northwest,6.7,No
2018/02/02,09:00,0.330,0.201,0.330,0.314,0.295,0.168,0.103,north,7.3,No
2018/02/02,09:10,0.330,0.201,0.330,0.313,0.294,0.168,0.102,north-northwest,6.6,No
2018/02/02,09:20,0.329,0.201,0.329,0.312,0.295,0.167,0.102,north-northwest,7.0,No
2018/02/02,09:30,0.329,0.201,0.329,0.313,0.294,0.167,0.101,north,6.8,No
2018/02/02,09:40,0.328,0.200,0.329,0.312,0.295,0.167,0.101,north,7.0,No
2018/02/02,09:50,0.330,0.199,0.328,0.313,0.293,0.165,0.100,north-northwest,5.2,No
2018/02/02,10:00,0.329,0.199,0.329,0.313,0.294,0.166,0.100,north,7.3,No
2018/02/02,10:10,0.328,0.199,0.328,0.312,0.293,0.165,0.100,north,8.1,No
2018/02/02,10:20,0.327,0.200,0.328,0.312,0.293,0.165,0.100,north,6.7,No
2018/02/02,10:30,0.327,0.199,0.328,0.311,0.295,0.166,0.100,north,8.1,No
2018/02/02,10:40,0.329,0.199,0.330,0.314,0.295,0.165,0.100,north,6.6,No
2018/02/02,10:50,0.327,0.198,0.328,0.314,0.295,0.165,0.100,north,6.1,No
2018/02/02,11:00,0.328,0.200,0.327,0.314,0.295,0.165,0.099,north-northwest,6.8,No
2018/02/02,11:10,0.329,0.200,0.327,0.313,0.295,0.166,0.100,north,6.6,No
2018/02/02,11:20,0.328,0.199,0.329,0.314,0.293,0.165,0.100,north,6.5,No
2018/02/02,11:30,0.329,0.199,0.327,0.313,0.294,0.166,0.100,north,7.1,No
2018/02/02,11:40,0.329,0.199,0.328,0.313,0.294,0.166,0.100,north,7.0,No
2018/02/02,11:50,0.329,0.199,0.327,0.312,0.292,0.165,0.100,north,7.3,No
2018/02/02,12:00,0.329,0.199,0.327,0.312,0.293,0.166,0.100,north,5.5,No
2018/02/02,12:10,0.329,0.199,0.329,0.314,0.295,0.166,0.099,north,6.2,No
2018/02/02,12:20,0.329,0.199,0.328,0.313,0.294,0.167,0.100,north,7.3,No
2018/02/02,12:30,0.328,0.200,0.328,0.313,0.295,0.165,0.100,north,6.7,No
2018/02/02,12:40,0.330,0.200,0.329,0.313,0.296,0.166,0.099,north,6.7,No
2018/02/02,12:50,0.329,0.200,0.331,0.313,0.295,0.166,0.100,north,6.2,No
2018/02/02,13:00,0.328,0.200,0.329,0.312,0.295,0.166,0.101,north-northwest,6.3,No
2018/02/02,13:10,0.329,0.199,0.328,0.313,0.294,0.165,0.100,north,6.1,No
2018/02/02,13:20,0.328,0.202,0.329,0.314,0.296,0.166,0.100,north,5.7,No
2018/02/02,13:30,0.330,0.199,0.330,0.313,0.297,0.166,0.100,north,5.3,No
2018/02/02,13:40,0.330,0.200,0.328,0.312,0.296,0.165,0.100,north,5.6,No
2018/02/02,13:50,0.330,0.200,0.329,0.311,0.295,0.166,0.100,north-northwest,5.1,No
2018/02/02,14:00,0.328,0.201,0.329,0.315,0.296,0.166,0.099,north,5.5,No
2018/02/02,14:10,0.329,0.201,0.329,0.312,0.295,0.166,0.099,north,4.3,No
2018/02/02,14:20,0.329,0.199,0.328,0.311,0.296,0.166,0.100,north,4.4,No
2018/02/02,14:30,0.330,0.200,0.327,0.313,0.296,0.167,0.099,north,5.5,No
2018/02/02,14:40,0.329,0.202,0.329,0.311,0.297,0.166,0.099,north,4.6,No
2018/02/02,14:50,0.331,0.200,0.330,0.313,0.296,0.166,0.099,north,5.1,No
2018/02/02,15:00,0.330,0.199,0.330,0.313,0.296,0.166,0.100,north,5.5,No
2018/02/02,15:10,0.329,0.200,0.329,0.314,0.297,0.166,0.100,north,3.8,No
2018/02/02,15:20,0.330,0.201,0.330,0.313,0.296,0.165,0.100,north,4.3,No
2018/02/02,15:30,0.329,0.201,0.330,0.313,0.296,0.166,0.100,north,4.2,No
2018/02/02,15:40,0.330,0.200,0.330,0.313,0.297,0.166,0.100,north-northeast,4.8,No
2018/02/02,15:50,0.330,0.201,0.328,0.314,0.297,0.166,0.100,north,4.5,No
2018/02/02,16:00,0.331,0.201,0.328,0.314,0.296,0.166,0.099,north,3.5,No
2018/02/02,16:10,0.329,0.200,0.329,0.316,0.297,0.166,0.100,north,3.1,No
2018/02/02,16:20,0.330,0.199,0.330,0.313,0.296,0.166,0.099,north-northeast,1.5,No
2018/02/02,16:30,0.330,0.200,0.329,0.315,0.297,0.167,0.101,north,2.0,No
2018/02/02,16:40,0.331,0.200,0.328,0.313,0.296,0.166,0.100,north,4.6,No
2018/02/02,16:50,0.330,0.201,0.329,0.314,0.296,0.166,0.100,north,4.7,No
2018/02/02,17:00,0.331,0.201,0.330,0.314,0.295,0.167,0.100,north,5.4,No
2018/02/02,17:10,0.331,0.201,0.330,0.314,0.296,0.166,0.100,north,4.8,No
2018/02/02,17:20,0.330,0.199,0.329,0.313,0.298,0.166,0.100,north,4.8,No
2018/02/02,17:30,0.330,0.201,0.329,0.314,0.295,0.166,0.099,north,4.5,No
2018/02/02,17:40,0.330,0.201,0.330,0.313,0.296,0.166,0.100,north,5.2,No
2018/02/02,17:50,0.330,0.200,0.329,0.314,0.297,0.167,0.099,north-northwest,4.3,No
2018/02/02,18:00,0.330,0.201,0.330,0.314,0.296,0.166,0.099,north-northwest,4.8,No
2018/02/02,18:10,0.330,0.200,0.330,0.314,0.296,0.166,0.100,north-northwest,4.2,No
2018/02/02,18:20,0.330,0.200,0.329,0.313,0.297,0.166,0.100,north-northwest,5.2,No
2018/02/02,18:30,0.331,0.201,0.329,0.315,0.295,0.167,0.100,north-northwest,5.5,No
2018/02/02,18:40,0.330,0.200,0.331,0.313,0.296,0.167,0.100,north-northwest,5.0,No
2018/02/02,18:50,0.332,0.200,0.329,0.314,0.298,0.166,0.100,north,5.7,No
2018/02/02,19:00,0.331,0.199,0.330,0.315,0.295,0.166,0.100,north-northwest,5.4,No
2018/02/02,19:10,0.331,0.201,0.331,0.314,0.295,0.166,0.099,north-northwest,5.6,No
2018/02/02,19:20,0.329,0.201,0.329,0.314,0.296,0.167,0.100,north-northwest,6.0,No
2018/02/02,19:30,0.332,0.201,0.328,0.314,0.295,0.166,0.100,north-northwest,5.5,No
2018/02/02,19:40,0.331,0.200,0.330,0.315,0.297,0.166,0.100,north-northwest,5.3,No
2018/02/02,19:50,0.331,0.200,0.329,0.313,0.298,0.166,0.099,north-northwest,4.9,No
2018/02/02,20:00,0.331,0.201,0.329,0.313,0.296,0.166,0.100,north-northwest,5.0,No
2018/02/02,20:10,0.332,0.201,0.329,0.313,0.297,0.166,0.099,north-northwest,4.9,No
2018/02/02,20:20,0.331,0.201,0.328,0.314,0.297,0.166,0.100,north-northwest,5.0,No
2018/02/02,20:30,0.329,0.201,0.328,0.314,0.295,0.166,0.100,north-northwest,5.7,No
2018/02/02,20:40,0.329,0.200,0.330,0.314,0.296,0.166,0.101,north-northwest,6.2,No
2018/02/02,20:50,0.331,0.200,0.331,0.312,0.295,0.166,0.099,north-northwest,5.9,No
2018/02/02,21:00,0.330,0.201,0.330,0.313,0.295,0.166,0.100,north-northwest,6.1,No
2018/02/02,21:10,0.331,0.201,0.329,0.315,0.295,0.165,0.101,north-northwest,6.0,No
2018/02/02,21:20,0.331,0.201,0.329,0.314,0.296,0.167,0.100,north-northwest,5.9,No
2018/02/02,21:30,0.331,0.200,0.330,0.313,0.296,0.166,0.100,north-northwest,5.7,No
2018/02/02,21:40,0.330,0.200,0.331,0.314,0.296,0.167,0.100,north-northwest,6.2,No
2018/02/02,21:50,0.331,0.201,0.331,0.315,0.297,0.166,0.100,north-northwest,5.9,No
2018/02/02,22:00,0.332,0.201,0.329,0.315,0.296,0.166,0.100,north-northwest,6.0,No
2018/02/02,22:10,0.332,0.201,0.331,0.315,0.296,0.166,0.101,north-northwest,5.7,No
2018/02/02,22:20,0.331,0.200,0.330,0.314,0.297,0.167,0.100,north-northwest,5.4,No
2018/02/02,22:30,0.331,0.200,0.331,0.314,0.296,0.166,0.100,north-northwest,4.7,No
2018/02/02,22:40,0.330,0.200,0.330,0.314,0.296,0.166,0.100,north-northwest,4.2,No
2018/02/02,22:50,0.332,0.200,0.329,0.314,0.296,0.165,0.101,north-northwest,3.0,No
2018/02/02,23:00,0.329,0.200,0.329,0.313,0.296,0.166,0.100,northwest,3.2,No
2018/02/02,23:10,0.330,0.201,0.330,0.313,0.297,0.166,0.100,northwest,2.2,No
2018/02/02,23:20,0.330,0.200,0.329,0.314,0.297,0.165,0.100,north-northwest,2.3,No
2018/02/02,23:30,0.330,0.200,0.331,0.314,0.296,0.167,0.100,north-northwest,2.9,No
2018/02/02,23:40,0.332,0.199,0.331,0.313,0.294,0.167,0.100,north-northwest,3.1,No
2018/02/02,23:50,0.331,0.200,0.330,0.313,0.295,0.167,0.100,north,2.3,No
